This demonstration page uses our WeatherBlox Daily Observations layout. Learn more.

Left ArrowRight Arrow

40.97296, -117.73568

Hourly Observations for August 11, 2016

Temp ( °F °C ) Dew Point ( °F °C ) Humidity (%) Winds ( mph kmh ) Pressure ( in mb ) Visibility ( mi km ) Precip ( " mm )
12:56 am 00:56 Clear 60 15.6 31 -0.6 33 33 WNW 6 9 29.94 1014 10 16 0.00 0.00
1:56 am 01:56 Clear 56 13.3 31 -0.6 39 39 WNW 3 6 29.96 1015 10 16 0.00 0.00
2:56 am 02:56 Clear 54 12.2 31 -0.6 42 42 Calm 29.97 1015 10 16 0.00 0.00
3:56 am 03:56 Clear 44 6.7 27 -2.8 51 51 SE 5 7 30.01 1016 10 16 0.00 0.00
4:56 am 04:56 Clear 44 6.7 26 -3.3 49 49 SE 7 11 30.01 1016 10 16 0.00 0.00
5:56 am 05:56 Clear 44 6.7 26 -3.3 49 49 ESE 5 7 30.04 1017 10 16 0.00 0.00
6:56 am 06:56 Sunny 50 10 28 -2.2 43 43 Calm 30.05 1018 10 16 0.00 0.00
7:56 am 07:56 Sunny 59 15 31 -0.6 35 35 Calm 30.06 1018 10 16 0.00 0.00
8:56 am 08:56 Sunny 70 21.1 36 2.2 29 29 ENE 9 15 30.07 1018 10 16 0.00 0.00
9:56 am 09:56 Sunny 76 24.4 36 2.2 23 23 NNE 10 17 30.06 1018 10 16 0.00 0.00
10:56 am 10:56 Sunny 81 27.2 33 0.6 18 18 Calm 30.05 1018 10 16 0.00 0.00
11:56 am 11:56 Sunny 85 29.4 32 0 15 15 N 10 17 30.02 1017 10 16 0.00 0.00
12:56 pm 12:56 Sunny 86 30 29 -1.7 13 13 undefined N/A 30.02 1017 10 16 0.00 0.00
1:56 pm 13:56 Sunny 87 30.6 30 -1.1 13 13 N 9 15 30.01 1016 10 16 0.00 0.00
2:56 pm 14:56 Sunny 88 31.1 29 -1.7 12 12 VRB 7 11 30.00 1016 10 16 0.00 0.00
3:56 pm 15:56 Sunny 88 31.1 26 -3.3 10 10 Calm 30.01 1016 10 16 0.00 0.00
4:56 pm 16:56 Sunny 90 32.2 25 -3.9 9 9 WNW 9 15 29.99 1016 10 16 0.00 0.00
5:56 pm 17:56 Sunny 89 31.7 26 -3.3 10 10 NNW 8 13 29.99 1016 10 16 0.00 0.00
6:56 pm 18:56 Sunny 87 30.6 25 -3.9 10 10 NNW 6 9 29.98 1015 10 16 0.00 0.00
7:56 pm 19:56 Clear 80 26.7 27 -2.8 14 14 N 5 7 29.98 1015 10 16 0.00 0.00
8:56 pm 20:56 Clear 66 18.9 28 -2.2 24 24 S 5 7 30.00 1016 10 16 0.00 0.00
9:56 pm 21:56 Clear 63 17.2 25 -3.9 24 24 WNW 5 7 30.01 1016 10 16 0.00 0.00
10:56 pm 22:56 Clear 58 14.4 26 -3.3 29 29 ESE 3 6 30.00 1016 10 16 0.00 0.00
11:56 pm 23:56 Clear 56 13.3 26 -3.3 32 32 ESE 7 11 30.00 1016 10 16 0.00 0.00

Powered by AerisWeather